Dewpoint
-8 -8 -7 -10 -14 -10 -2 0 2 5 9 9 10 9 10 8 7 10 11 11 10 9 7 7 7 7 7
-9 -9 -8 -8 -14 -11 -4 -4 0 2 7 9 10 10 10 9 8 8 9 10 10 10 8 7 8 7 7
-9 -9 -9 -8 -7 -10 -8 -6 -1 -0 4 7 10 10 10 9 8 8 8 10 10 10 8 8 8 8 7
-9 -9 -9 -9 -6 -6 -6 -5 -2 -0 1 5 8 10 10 10 9 8 9 11 11 10 8 8 8 8 7
-9 -9 -8 -9 -5 -5 -5 -4 -3 -1 1 4 6 9 9 9 10 8 9 9 10 10 8 9 9 7 6
-9 -9 -9 -7 -7 -6 -5 -4 -4 -2 -0 1 2 7 9 9 9 9 9 8 10 10 9 8 6 9 8
-11 -11 -9 -7 -6 -5 -6 -5 -4 -3 -1 -0 0 2 7 9 8 9 8 9 9 10 9 8 7 9 9
-8 -8 -8 -8 -8 -6 -5 -5 -5 -5 -3 -2 -1 0 4 8 9 8 8 9 9 9 8 7 7 9 9
-9 -9 -8 -8 -7 -7 -7 -6 -7 -6 -4 -3 -1 -1 1 5 8 9 9 9 8 8 9 9 8 8 10
-10 -9 -8 -8 -7 -7 -7 -6 -6 -5 -3 -2 -1 0 2 5 8 9 9 9 9 8 8 9 9 9 9
-9 -9 -9 -9 -7 -7 -7 -6 -6 -6 -5 -3 -1 -0 -1 -0 3 6 8 8 9 9 9 9 9 9 10
-8 -8 -8 -7 -8 -7 -7 -6 -6 -6 -5 -4 -4 -4 -2 -2 -1 2 4 7 8 9 9 9 8 8 9
-7 -7 -7 -6 -6 -6 -5 -5 -5 -5 -5 -4 -3 -4 -3 -3 -2 0 1 6 7 9 9 9 9 9 9
-7 -7 -7 -8 -7 -7 -6 -5 -5 -5 -6 -6 -4 -4 -4 -3 -2 -1 1 1 5 7 8 9 9 9 9
-6 -7 -7 -6 -7 -8 -7 -6 -7 -7 -7 -7 -7 -6 -5 -4 -3 -2 -0 1 2 5 7 8 8 9 8
-7 -6 -6 -6 -6 -6 -6 -6 -6 -6 -7 -7 -6 -6 -6 -5 -5 -4 -1 1 2 2 5 8 8 9 8
-9 -9 -8 -8 -7 -7 -7 -7 -7 -6 -6 -6 -6 -6 -5 -4 -4 -4 -3 -0 2 1 3 5 7 8 6
Wind_Speed
36 35 33 37 37 40 47 32 25 14 48 48 54 56 59 57 55 57 56 55 49 48 45 41 44 44 42
38 37 34 31 37 36 40 43 33 28 28 49 62 60 60 61 58 57 61 58 54 51 47 45 44 43 43
39 35 34 27 31 33 40 45 39 35 18 32 62 60 64 62 58 56 60 61 60 54 50 47 46 45 43
37 32 31 27 27 28 31 37 44 31 25 23 39 53 60 61 61 57 58 73 67 59 52 50 47 44 43
32 29 27 21 21 21 24 25 38 35 31 12 21 39 56 60 62 58 58 55 66 60 54 51 48 45 43
30 32 26 21 20 22 21 24 27 25 31 28 17 19 39 63 64 61 57 54 60 65 61 58 54 50 48
38 36 29 23 20 20 21 25 25 30 34 41 29 24 25 45 69 64 59 57 54 66 57 57 56 55 50
40 42 39 37 32 25 21 21 23 24 28 37 33 31 15 33 50 71 66 62 59 59 62 58 56 59 55
31 33 33 33 31 32 31 26 29 27 22 27 33 38 22 19 35 60 69 67 62 62 60 62 61 63 59
29 28 29 32 30 32 34 30 25 22 13 15 9 14 13 5 15 42 62 71 64 59 58 60 61 66 65
27 28 27 25 22 22 24 26 27 27 22 12 18 19 19 25 11 12 38 52 64 63 61 61 65 62 66
25 27 26 23 21 20 21 23 20 21 21 22 26 22 28 33 31 9 10 35 57 63 67 60 62 65 68
31 29 27 22 22 21 19 21 21 18 19 21 21 19 24 28 32 26 22 14 30 63 61 62 63 64 72
28 27 26 25 24 23 26 20 20 22 23 23 25 22 26 28 24 27 20 18 7 37 56 60 62 66 67
31 28 26 26 26 24 25 24 25 27 27 28 24 28 29 28 31 32 28 24 13 13 44 52 54 62 63
20 22 17 18 22 21 23 28 27 26 26 25 23 21 21 27 32 37 34 30 21 15 23 46 55 54 54
14 18 21 20 19 22 22 30 27 27 27 23 21 20 19 27 29 22 31 33 30 23 13 29 48 56 51
Wind_Direction
281 286 289 284 285 281 277 278 278 253 222 224 229 230 230 226 229 229 227 224 224 223 223 223 218 217 218
282 286 288 296 288 286 278 281 278 285 221 218 220 225 227 225 225 231 230 230 224 221 222 222 220 216 217
278 283 287 288 290 289 279 283 277 278 260 241 218 218 225 222 223 229 232 226 224 218 220 222 220 218 217
274 280 286 295 297 297 297 286 277 277 285 260 231 219 224 221 224 225 225 222 222 219 216 221 223 218 219
269 274 279 286 281 289 286 292 281 278 284 279 247 217 224 219 221 224 225 229 224 214 218 220 227 225 221
264 268 270 273 286 291 298 303 302 275 274 270 306 223 217 219 219 222 223 223 223 213 216 216 226 228 224
257 260 265 263 270 283 285 285 284 285 283 281 289 296 215 214 222 223 222 223 224 215 211 217 222 225 225
252 261 264 269 269 270 266 264 273 280 275 279 287 292 253 206 220 221 220 221 219 214 213 220 224 223 226
256 257 259 260 262 270 270 273 279 280 277 279 285 287 299 246 214 221 223 222 219 221 221 228 223 223 227
259 256 256 259 259 257 264 261 262 277 290 267 297 284 311 240 197 213 224 223 223 223 222 224 227 223 225
259 260 261 261 259 262 264 266 261 257 251 273 259 267 294 293 301 193 213 226 223 227 227 224 220 223 225
253 258 260 258 258 257 260 267 267 263 263 270 262 271 281 291 292 277 247 208 226 225 221 222 223 220 225
251 254 255 257 264 255 250 255 254 257 254 249 269 269 270 277 281 286 313 199 210 215 215 219 221 219 221
249 255 262 258 257 259 261 254 255 261 267 263 252 246 250 259 272 278 281 288 185 216 217 221 224 219 223
245 250 251 258 265 259 259 262 263 267 266 267 262 258 257 264 262 261 265 268 281 228 212 217 218 219 220
250 248 244 237 246 249 255 265 265 262 266 267 262 261 254 253 252 257 255 260 270 279 204 215 219 222 224
282 265 260 259 253 252 257 263 266 271 271 279 281 268 256 252 249 255 250 254 256 279 249 213 218 225 222
Height
1386 1386 1385 1382 1379 1381 1376 1374 1378 1381 1384 1390 1401 1408 1417 1425 1434 1443 1447 1453 1461 1469 1476 1482 1490 1495 1501
1380 1379 1378 1376 1370 1369 1372 1375 1374 1375 1374 1377 1381 1392 1403 1411 1421 1430 1438 1446 1450 1459 1467 1474 1482 1487 1494
1372 1374 1372 1374 1371 1365 1362 1362 1366 1371 1359 1365 1368 1377 1389 1398 1408 1418 1425 1434 1440 1450 1458 1467 1474 1479 1485
1369 1369 1367 1362 1361 1358 1349 1355 1360 1356 1359 1356 1360 1367 1376 1386 1397 1405 1414 1418 1429 1439 1448 1459 1466 1469 1475
1365 1365 1364 1362 1362 1360 1360 1356 1351 1353 1351 1352 1357 1360 1366 1374 1385 1393 1402 1409 1418 1425 1436 1450 1456 1462 1467
1359 1356 1358 1359 1354 1349 1345 1346 1345 1356 1351 1352 1347 1346 1352 1361 1371 1381 1390 1399 1409 1414 1424 1436 1445 1454 1460
1352 1349 1350 1355 1358 1356 1351 1350 1346 1342 1342 1340 1344 1343 1344 1349 1360 1369 1377 1388 1397 1404 1413 1424 1435 1443 1450
1342 1342 1342 1343 1347 1353 1352 1352 1346 1343 1345 1343 1339 1337 1333 1337 1346 1356 1366 1377 1387 1396 1405 1413 1423 1432 1440
1334 1334 1336 1336 1335 1333 1338 1341 1337 1338 1339 1336 1327 1339 1328 1329 1334 1340 1354 1364 1375 1385 1393 1403 1411 1422 1430
1327 1327 1328 1328 1330 1330 1328 1333 1336 1335 1327 1329 1328 1332 1321 1327 1324 1334 1342 1352 1362 1372 1381 1391 1400 1410 1420
1320 1320 1321 1321 1322 1323 1320 1318 1318 1321 1326 1325 1328 1328 1324 1324 1318 1321 1332 1339 1349 1359 1369 1379 1388 1398 1406
1314 1314 1314 1315 1316 1318 1318 1316 1316 1317 1318 1321 1325 1315 1321 1319 1321 1320 1323 1326 1334 1342 1353 1366 1376 1387 1394
1307 1308 1308 1309 1311 1312 1314 1316 1318 1319 1320 1321 1318 1315 1318 1321 1321 1318 1319 1322 1326 1331 1340 1350 1358 1370 1380
1300 1302 1302 1302 1304 1306 1309 1310 1311 1311 1311 1313 1315 1315 1319 1319 1314 1311 1319 1319 1318 1325 1328 1339 1347 1357 1366
1293 1295 1297 1297 1297 1300 1301 1305 1306 1306 1308 1311 1309 1312 1308 1305 1305 1309 1314 1317 1314 1318 1322 1328 1334 1346 1354
1287 1288 1289 1291 1292 1293 1293 1293 1297 1303 1302 1303 1306 1301 1296 1296 1298 1301 1308 1310 1310 1314 1315 1320 1328 1336 1344
1284 1284 1284 1286 1287 1288 1287 1285 1281 1279 1282 1280 1276 1285 1286 1290 1296 1298 1301 1306 1306 1308 1311 1316 1320 1327 1335